Plymouth, NH

5:07 AM EDT on May 27, 2018 (GMT -0400)
Plymouth

Weather History for K1P1 - October, 2012

Change the Weather History Date:

Sunday, October 14, 2012

  Actual Average (KLCI) Record (KLCI)
Temperature  
Mean Temperature 42 °F -  
Max Temperature 46 °F 61 °F 82 °F (1995)
Min Temperature 37 °F 40 °F 25 °F (1993)
Degree Days  
Heating Degree Days 24    
Moisture  
Dew Point 41 °F    
Average Humidity 95    
Maximum Humidity 99    
Minimum Humidity 78    
Precipitation  
Precipitation 0.25 in - - ()
Sea Level Pressure  
Sea Level Pressure 30.07 in    
Wind  
Wind Speed 1 mph (ENE)    
Max Wind Speed 6 mph    
Max Gust Speed -    
Visibility 8 miles    
Events Rain    
Averages and records for this station are not official NWS values.
T = Trace of Precipitation, MM = Missing Value Source: NWS Daily Summary

Daily Weather History Graph

Daily Weather History Graph

Search for Another Location

Airport or City:

Astronomy

Oct. 14, 2012 Rise Set
Actual Time 7:00 AM EDT 6:04 PM EDT
Civil Twilight 6:31 AM EDT 6:33 PM EDT
Nautical Twilight 5:58 AM EDT 7:06 PM EDT
Astronomical Twilight 5:25 AM EDT 7:39 PM EDT
Moon 5:55 AM EDT (10/14) 5:21 PM EDT (10/14)
Length of Visible Light 12h 01m
Length of Day
11h 03m
Waning Crescent, 1% of the Moon is Illuminated
Oct 14
Waning Crescent
Oct 15
New
Oct 21
First Quarter
Oct 29
Full
Nov 6
Last Quarter

Hourly Weather History & Observations

Time (EDT) Temp. Windchill Dew Point Humidity Pressure Visibility Wind Dir Wind Speed Gust Speed Precip Events Conditions
12:15 AM 39.2 °F - 36.3 °F 89% 30.27 in 10.0 mi Calm Calm - N/A   Light Drizzle
12:35 AM 38.8 °F - 36.5 °F 91% 30.27 in 10.0 mi Calm Calm - N/A   Overcast
1:15 AM 38.7 °F - 36.7 °F 93% 30.28 in 10.0 mi Calm Calm - N/A   Overcast
1:35 AM 40.6 °F 37.5 °F 34.2 °F 78% 30.26 in 10.0 mi East 4.6 mph - N/A   Light Drizzle
1:55 AM 40.1 °F - 35.1 °F 82% 30.25 in 10.0 mi Calm Calm - N/A Rain Light Rain
2:15 AM 38.8 °F - 36.3 °F 91% 30.24 in 5.0 mi Calm Calm - N/A Rain Rain
2:35 AM 38.3 °F - 37.0 °F 95% 30.24 in 7.0 mi Calm Calm - 0.02 in Rain Light Rain
3:15 AM 37.9 °F - 37.4 °F 98% 30.23 in 2.5 mi Calm Calm - 0.03 in Rain Rain
3:35 AM 37.8 °F 35.3 °F 37.4 °F 99% 30.21 in 5.0 mi East 3.5 mph - 0.05 in Rain Rain
3:55 AM 37.8 °F - 37.4 °F 99% 30.19 in 5.0 mi Calm Calm - 0.07 in Rain Rain
4:15 AM 37.8 °F 35.3 °F 37.4 °F 99% 30.17 in 3.0 mi NE 3.5 mph - 0.01 in Rain Rain
4:35 AM 37.9 °F 33.5 °F 37.4 °F 98% 30.17 in 5.0 mi ENE 5.8 mph - 0.02 in Rain Rain
4:55 AM 37.9 °F 35.5 °F 37.0 °F 97% 30.17 in 3.0 mi ENE 3.5 mph - 0.03 in Rain Heavy Rain
5:15 AM 37.9 °F 35.5 °F 37.2 °F 97% 30.16 in 4.0 mi NE 3.5 mph - 0.03 in Rain Rain
5:35 AM 37.9 °F 35.5 °F 37.4 °F 98% 30.14 in 7.0 mi NE 3.5 mph - 0.04 in Rain Light Rain
5:55 AM 38.1 °F 35.7 °F 37.4 °F 97% 30.14 in 7.0 mi NE 3.5 mph - 0.05 in Rain Light Rain
6:15 AM 38.3 °F 35.9 °F 37.4 °F 97% 30.14 in 4.0 mi ENE 3.5 mph - 0.02 in Rain Rain
6:35 AM 38.5 °F 36.1 °F 37.8 °F 97% 30.13 in 5.0 mi East 3.5 mph - 0.03 in Rain Rain
6:55 AM 38.5 °F - 37.8 °F 97% 30.13 in 7.0 mi Calm Calm - 0.03 in Rain Rain
7:15 AM 38.5 °F - 37.9 °F 98% 30.12 in 4.0 mi Calm Calm - 0.01 in Rain Light Rain
7:35 AM 38.5 °F - 37.9 °F 98% 30.12 in 2.0 mi Calm Calm - 0.04 in Rain Rain
7:55 AM 38.5 °F - 38.3 °F 99% 30.11 in 5.0 mi Calm Calm - 0.05 in Rain Light Rain
8:15 AM 38.7 °F - 38.3 °F 99% 30.11 in 10.0 mi Calm Calm - N/A   Light Drizzle
8:35 AM 39.2 °F - 38.3 °F 97% 30.11 in 10.0 mi Calm Calm - N/A Rain Light Rain
9:15 AM 39.4 °F - 38.7 °F 97% 30.10 in 10.0 mi Calm Calm - N/A   Overcast
9:35 AM 40.1 °F - 39.2 °F 97% 30.09 in 10.0 mi Calm Calm - N/A   Overcast
9:55 AM 40.3 °F - 39.6 °F 97% 30.10 in 5.0 mi Calm Calm - N/A   Overcast
10:15 AM 40.5 °F - 39.6 °F 97% 30.09 in 7.0 mi Calm Calm - N/A   Overcast
10:35 AM 41.0 °F - 39.6 °F 95% 30.09 in 10.0 mi Calm Calm - N/A   Overcast
10:55 AM 41.2 °F - 39.4 °F 93% 30.09 in 10.0 mi Calm Calm - N/A   Overcast
11:15 AM 41.7 °F - 39.6 °F 92% 30.08 in 10.0 mi Calm Calm - N/A   Overcast
11:35 AM 42.4 °F - 40.3 °F 92% 30.08 in 10.0 mi Calm Calm - N/A   Overcast
11:55 AM 42.8 °F - 40.3 °F 91% 30.07 in 10.0 mi Calm Calm - N/A   Overcast
12:15 PM 43.0 °F - 40.1 °F 90% 30.07 in 10.0 mi Calm Calm - N/A   Overcast
12:35 PM 43.2 °F - 41.0 °F 92% 30.06 in 10.0 mi Calm Calm - N/A   Overcast
12:55 PM 43.5 °F - 41.2 °F 91% 30.06 in 10.0 mi Calm Calm - N/A   Overcast
1:15 PM 43.7 °F - 41.5 °F 92% 30.05 in 10.0 mi Calm Calm - N/A Rain Light Rain
1:35 PM 43.9 °F - 41.9 °F 93% 30.04 in 10.0 mi Calm Calm - N/A   Drizzle
1:55 PM 44.2 °F - 42.3 °F 93% 30.04 in 10.0 mi Calm Calm - N/A Rain Light Rain
2:15 PM 44.2 °F - 42.1 °F 92% 30.03 in 10.0 mi Calm Calm - N/A Rain Light Rain
2:35 PM 44.6 °F - 42.8 °F 93% 30.02 in 10.0 mi Calm Calm - N/A Rain Light Rain
2:55 PM 45.0 °F - 42.8 °F 92% 30.01 in 10.0 mi Calm Calm - N/A   Overcast
3:15 PM 45.5 °F - 43.3 °F 92% 30.01 in 10.0 mi Calm Calm - N/A   Overcast
3:35 PM 45.9 °F - 43.7 °F 92% 30.01 in 10.0 mi Calm Calm - N/A   Overcast
4:15 PM 45.9 °F - 44.1 °F 93% 30.00 in 10.0 mi Calm Calm - N/A   Overcast
4:35 PM 45.7 °F - 44.1 °F 94% 30.00 in 10.0 mi Calm Calm - N/A   Overcast
5:15 PM 46.0 °F - 44.6 °F 95% 29.99 in 10.0 mi Calm Calm - N/A   Overcast
5:35 PM 46.0 °F - 44.8 °F 95% 30.00 in 10.0 mi Calm Calm - N/A   Overcast
5:55 PM 45.9 °F - 44.6 °F 95% 30.00 in 10.0 mi Calm Calm - N/A   Overcast
6:15 PM 45.9 °F - 44.6 °F 95% 29.99 in 10.0 mi Calm Calm - N/A   Overcast
6:35 PM 45.9 °F - 44.6 °F 95% 29.99 in 10.0 mi Calm Calm - N/A   Overcast
6:55 PM 45.9 °F - 44.8 °F 96% 29.99 in 10.0 mi Calm Calm - N/A   Overcast
7:15 PM 45.9 °F - 44.8 °F 96% 29.98 in 10.0 mi Calm Calm - N/A   Overcast
7:35 PM 46.0 °F - 45.0 °F 96% 29.99 in 7.0 mi Calm Calm - N/A   Overcast
7:55 PM 45.9 °F - 44.8 °F 96% 29.98 in 10.0 mi Calm Calm - N/A   Overcast
8:15 PM 46.0 °F - 45.0 °F 96% 29.98 in 7.0 mi Calm Calm - N/A   Overcast
8:35 PM 46.2 °F - 45.3 °F 97% 29.97 in 7.0 mi Calm Calm - N/A   Overcast
8:55 PM 46.4 °F - 45.1 °F 95% 29.96 in 10.0 mi Calm Calm - N/A   Overcast
9:15 PM 46.4 °F - 45.1 °F 95% 29.96 in 10.0 mi Calm Calm - N/A   Overcast
9:35 PM 46.4 °F - 45.1 °F 95% 29.95 in 10.0 mi Calm Calm - N/A   Overcast
9:55 PM 46.4 °F - 45.1 °F 95% 29.95 in 10.0 mi Calm Calm - N/A   Overcast
10:15 PM 46.4 °F - 45.5 °F 97% 29.94 in 10.0 mi Calm Calm - N/A   Overcast
10:35 PM 46.4 °F - 45.5 °F 97% 29.94 in 10.0 mi Calm Calm - N/A   Overcast
10:55 PM 46.4 °F - 45.5 °F 97% 29.94 in 10.0 mi Calm Calm - N/A   Overcast
11:15 PM 46.4 °F - 45.5 °F 97% 29.93 in 10.0 mi Calm Calm - N/A   Overcast
11:35 PM 46.6 °F - 45.5 °F 96% 29.93 in 10.0 mi Calm Calm - N/A   Overcast
11:55 PM 46.4 °F - 45.5 °F 97% 29.92 in 10.0 mi Calm Calm - N/A   Overcast